TimeEDT,TemperatureF,Dew PointF,Humidity,Sea Level PressureIn,VisibilityMPH,Wind Direction,Wind SpeedMPH,Gust SpeedMPH,PrecipitationIn,Events,Conditions,WindDirDegrees,DateUTC
12:58 AM,53.4,46.6,78,30.20,10.0,SSE,9.2,-,N/A,,Clear,150,2013-05-19 04:58:00
1:58 AM,54.1,46.4,75,30.19,10.0,SSE,6.9,-,N/A,,Clear,150,2013-05-19 05:58:00
2:58 AM,53.2,46.6,78,30.19,10.0,SSE,8.1,-,N/A,,Clear,150,2013-05-19 06:58:00
3:58 AM,52.7,47.3,82,30.19,10.0,SE,11.5,-,N/A,,Clear,140,2013-05-19 07:58:00
4:58 AM,52.3,47.1,82,30.19,10.0,SE,12.7,-,N/A,,Clear,140,2013-05-19 08:58:00
5:58 AM,52.3,47.1,82,30.19,10.0,SSE,12.7,-,N/A,,Clear,150,2013-05-19 09:58:00
6:58 AM,53.8,47.8,80,30.20,10.0,SSE,12.7,-,N/A,,Clear,150,2013-05-19 10:58:00
7:58 AM,57.0,49.6,76,30.20,10.0,SSE,12.7,-,N/A,,Partly Cloudy,150,2013-05-19 11:58:00
8:58 AM,60.8,50.7,69,30.20,10.0,SSE,13.8,-,N/A,,Mostly Cloudy,150,2013-05-19 12:58:00
9:58 AM,61.9,51.4,69,30.19,10.0,SSE,17.3,-,N/A,,Scattered Clouds,150,2013-05-19 13:58:00
10:58 AM,64.4,52.7,66,30.19,10.0,SE,13.8,-,N/A,,Mostly Cloudy,140,2013-05-19 14:58:00
11:28 AM,64.4,51.8,64,30.19,10.0,SE,11.5,-,N/A,,Mostly Cloudy,140,2013-05-19 15:28:00
11:58 AM,61.9,51.8,69,30.19,10.0,SE,13.8,-,N/A,,Overcast,140,2013-05-19 15:58:00
12:58 PM,60.8,52.9,75,30.18,10.0,SE,16.1,-,N/A,,Overcast,140,2013-05-19 16:58:00
1:58 PM,60.6,53.8,78,30.16,10.0,SSE,15.0,-,N/A,,Overcast,150,2013-05-19 17:58:00
2:53 PM,60.8,53.6,77,30.13,10.0,SSE,12.7,-,N/A,,Overcast,150,2013-05-19 18:53:00
2:58 PM,61.5,54.5,78,30.14,10.0,SSE,13.8,-,N/A,,Overcast,150,2013-05-19 18:58:00
3:03 PM,60.8,53.6,77,30.13,10.0,SSE,17.3,-,N/A,,Overcast,150,2013-05-19 19:03:00
3:58 PM,61.0,54.9,80,30.12,10.0,SSE,16.1,-,N/A,,Overcast,150,2013-05-19 19:58:00
4:43 PM,62.6,55.4,77,30.09,10.0,SE,15.0,-,N/A,,Overcast,140,2013-05-19 20:43:00
4:58 PM,62.4,55.8,79,30.10,10.0,SE,17.3,-,N/A,,Overcast,140,2013-05-19 20:58:00
5:58 PM,62.6,56.3,80,30.09,10.0,SE,12.7,-,N/A,,Mostly Cloudy,140,2013-05-19 21:58:00
6:33 PM,62.6,55.4,77,30.07,10.0,SE,12.7,-,N/A,,Mostly Cloudy,140,2013-05-19 22:33:00
6:58 PM,62.1,56.3,81,30.07,10.0,SE,9.2,-,N/A,,Mostly Cloudy,140,2013-05-19 22:58:00
7:28 PM,62.6,57.2,82,30.07,10.0,SE,12.7,-,N/A,,Mostly Cloudy,140,2013-05-19 23:28:00
7:58 PM,61.5,56.5,83,30.06,10.0,SSE,11.5,-,N/A,,Mostly Cloudy,150,2013-05-19 23:58:00
8:58 PM,59.9,56.5,88,30.04,10.0,SSE,11.5,-,N/A,,Scattered Clouds,150,2013-05-20 00:58:00
9:58 PM,59.4,56.5,90,30.05,10.0,SSE,10.4,-,N/A,,Mostly Cloudy,160,2013-05-20 01:58:00
10:58 PM,59.2,56.7,91,30.06,10.0,SSE,9.2,-,N/A,,Overcast,150,2013-05-20 02:58:00
11:58 PM,58.3,56.8,95,30.03,10.0,South,10.4,-,N/A,,Clear,170,2013-05-20 03:58:00